(479092) = 2013 AF118 = 2007 UB76

Discovered at Mount Lemmon on 2007-09-12 by Mt. Lemmon Survey.

Orbit

Orbit type: Main Belt

Note: WebGL enabled browser required.

epoch2023-02-25.0
epoch JD2460000.5
perihelion date2021-07-07.10909
perihelion JD2459402.60909
argument of perihelion (°)56.36413
ascending node (°)21.01786
inclination (°)5.07682
eccentricity0.1491754
perihelion distance (AU)2.3041903
Tisserand w.r.t. Jupiter3.3
ΔV w.r.t. Earth (km/sec)9.7
semimajor axis (AU)2.7081847
mean anomaly (°)132.22342
mean daily motion (°/day)0.22114970
aphelion distance (AU)3.112
period (years)4.46
P-vector [x]0.21962152
P-vector [y]0.86321935
P-vector [z]0.45455334
Q-vector [x]-0.97506875
Q-vector [y]0.17906531
Q-vector [z]0.13105930
absolute magnitude17.26
phase slope0.15
uncertainty0
referenceMPO 745323
observations used278
oppositions10
arc length (days)5722
first opposition used2007
last opposition used2023
residual rms (arc-secs)0.65
perturbers coarse indicatorM-v
perturbers precise indicator003Ek
first observation date used2007-09-12.0
last observation date used2023-05-13.0
computer nameMPCLINUX
JD of orbit computation2457702.121068
perihelion JD uncertainty (days)1.5812E-04
argument of perihelion uncertainty (°)1.0430E-04
ascending node uncertainty (°)9.7273E-05
inclination uncertainty (°)9.8630E-06
eccentricity uncertainty 9.0682E-08
perihelion distance uncertainty (AU)2.3710E-07
Minimum Orbit Intersection Distances (in AU)
for orbit epoch: 2460000.5, reference: E2023-JE0
Mercury1.99673
Venus1.58653
Earth1.32288
Mars0.74192
Jupiter2.15698
Saturn6.74578
Uranus15.6703
Neptune27.2437

Observations

281 total observations over interval: 2007 09 12.47175 – 2023 05 13.457279
These data are available for download (format description).

Date (UT) J2000 RA J2000 Dec Magn Location Ref
2007 09 12.47175 03 16 44.47 +19 15 10.5 21.1 V G96 – Mt. Lemmon Survey MPS 457745
2007 09 12.47750 03 16 44.58 +19 15 11.8 21.3 V G96 – Mt. Lemmon Survey MPS 457745
2007 09 12.48315 03 16 44.72 +19 15 12.9 21.1 V G96 – Mt. Lemmon Survey MPS 457745
2007 09 12.48870 03 16 44.79 +19 15 14.5 20.9 V G96 – Mt. Lemmon Survey MPS 457745
2007 10 31.26324 03 00 27.86 +20 34 15.0 20.9 V G96 – Mt. Lemmon Survey MPS 225123
2007 10 31.27162 03 00 27.39 +20 34 14.0 21.2 V G96 – Mt. Lemmon Survey MPS 225123
2007 10 31.27998 03 00 26.89 +20 34 14.1 21.4 V G96 – Mt. Lemmon Survey MPS 225123
2007 10 31.28836 03 00 26.42 +20 34 13.7 20.8 V G96 – Mt. Lemmon Survey MPS 225123
2007 11 02.30267 02 58 31.51 +20 32 08.7 19.9 V G96 – Mt. Lemmon Survey MPS 225123
2007 11 02.31095 02 58 31.04 +20 32 07.9 19.8 V G96 – Mt. Lemmon Survey MPS 225123
2007 11 02.31916 02 58 30.54 +20 32 07.1 19.9 V G96 – Mt. Lemmon Survey MPS 225123
2007 11 02.32733 02 58 30.03 +20 32 06.7 20.0 V G96 – Mt. Lemmon Survey MPS 225123
2007 11 07.32713 02 53 36.13 +20 25 20.8 19.3 V 703 – Catalina Sky Survey MPS 312549
2007 11 07.34137 02 53 35.16 +20 25 19.0 19.5 V 703 – Catalina Sky Survey MPS 312549
2007 11 07.35561 02 53 34.36 +20 25 17.9 19.4 V 703 – Catalina Sky Survey MPS 312549
2007 11 07.36985 02 53 33.39 +20 25 16.4 19.9 V 703 – Catalina Sky Survey MPS 312549
2009 03 17.21639 12 15 11.25 +01 25 46.6 20.8 V 691 – Steward Observatory, Kitt Peak-Spacewatch MPS 457745
2009 03 17.23401 12 15 10.30 +01 25 50.8 20.5 V 691 – Steward Observatory, Kitt Peak-Spacewatch MPS 457745
2009 03 17.25163 12 15 09.34 +01 25 55.6 20.7 V 691 – Steward Observatory, Kitt Peak-Spacewatch MPS 457746
2011 09 23.23983 23 10 10.45 -09 53 58.4 21.5 V G96 – Mt. Lemmon Survey MPS 457746
2011 09 23.24591 23 10 10.05 -09 53 59.2 22.1 V G96 – Mt. Lemmon Survey MPS 457746
2011 09 23.25212 23 10 09.73 -09 54 00.9 21.3 V G96 – Mt. Lemmon Survey MPS 457746
2011 09 23.25826 23 10 09.40 -09 54 01.9 21.2 V G96 – Mt. Lemmon Survey MPS 457746
2011 10 21.12568 22 53 27.45 -10 21 17.3 21.4 V G96 – Mt. Lemmon Survey MPS 457746
2011 10 21.13497 22 53 27.31 -10 21 17.4 21.1 V G96 – Mt. Lemmon Survey MPS 457746
2011 10 21.14435 22 53 27.09 -10 21 16.3 22.0 V G96 – Mt. Lemmon Survey MPS 457746
2011 10 21.15370 22 53 26.95 -10 21 15.5 20.6 V G96 – Mt. Lemmon Survey MPS 457746
2013 01 15.07702 09 09 59.44 +24 52 10.5 20.3 R J04 – ESA Optical Ground Station, Tenerife MPS 452401
2013 01 15.08859 09 09 58.78 +24 52 13.6 20.2 R J04 – ESA Optical Ground Station, Tenerife MPS 452401
2013 01 15.10016 09 09 58.15 +24 52 16.0 19.8 R J04 – ESA Optical Ground Station, Tenerife MPS 452401
2013 01 15.11174 09 09 57.59 +24 52 19.7 20.1 R J04 – ESA Optical Ground Station, Tenerife MPS 452401
2013 01 17.30323 09 08 01.50 +25 01 28.9 20.2 V 691 – Steward Observatory, Kitt Peak-Spacewatch MPS 452401
2013 01 17.32141 09 08 00.48 +25 01 33.1 20.3 V 691 – Steward Observatory, Kitt Peak-Spacewatch MPS 452401
2013 01 17.33958 09 07 59.41 +25 01 37.7 20.3 V 691 – Steward Observatory, Kitt Peak-Spacewatch MPS 452401
2013 02 06.27957 08 48 14.68 +26 06 05.2 20.3 V 703 – Catalina Sky Survey MPS 457746
2013 02 06.29096 08 48 14.11 +26 06 05.5 19.6 V 703 – Catalina Sky Survey MPS 457746
2013 02 06.29661 08 48 13.64 +26 06 06.2 21.1 V 703 – Catalina Sky Survey MPS 457746
2013 02 12.28538 08 42 34.582 +26 15 09.65 21.3 w F51 – Pan-STARRS 1, Haleakala MPS 457746
2013 02 12.29856 08 42 33.848 +26 15 10.82 21.1 w F51 – Pan-STARRS 1, Haleakala MPS 457746
2013 02 12.31178 08 42 33.112 +26 15 11.66 21.0 w F51 – Pan-STARRS 1, Haleakala MPS 457746
2014 05 07.40358 14 59 08.370 -20 31 04.43 21.2 r F51 – Pan-STARRS 1, Haleakala MPS 513916
2014 05 07.41426 14 59 07.733 -20 31 02.70 21.0 r F51 – Pan-STARRS 1, Haleakala MPS 513916
2014 05 07.42479 14 59 07.132 -20 31 01.30 21.0 r F51 – Pan-STARRS 1, Haleakala MPS 513916
2014 05 07.43533 14 59 06.519 -20 30 59.63 21.0 r F51 – Pan-STARRS 1, Haleakala MPS 513916
2016 10 23.43360 04 12 10.97 +25 18 40.5 19.7 V G96 – Mt. Lemmon Survey MPS 737579
2016 10 23.43795 04 12 10.88 +25 18 41.5 19.7 V G96 – Mt. Lemmon Survey MPS 737579
2016 10 23.44235 04 12 10.74 +25 18 42.3 20.3 V G96 – Mt. Lemmon Survey MPS 737579
2016 10 23.44666 04 12 10.60 +25 18 42.7 20.4 V G96 – Mt. Lemmon Survey MPS 737579
2016 11 09.39455 04 00 04.25 +25 42 44.9 20.8 V G96 – Mt. Lemmon Survey MPS 742245
2016 11 09.39883 04 00 03.93 +25 42 44.7 20.0 V G96 – Mt. Lemmon Survey MPS 742245
2016 11 09.40311 04 00 03.70 +25 42 44.6 20.3 V G96 – Mt. Lemmon Survey MPS 742245
2016 11 09.40740 04 00 03.55 +25 42 44.1 20.6 V G96 – Mt. Lemmon Survey MPS 742245
2016 11 18.32907 03 51 18.93 +25 42 33.2 19.7 V G96 – Mt. Lemmon Survey MPS 747436
2016 11 18.33542 03 51 18.53 +25 42 33.2 19.9 V G96 – Mt. Lemmon Survey MPS 747436
2016 11 18.34170 03 51 18.09 +25 42 33.4 19.9 V G96 – Mt. Lemmon Survey MPS 747436
2016 11 18.34803 03 51 17.70 +25 42 32.8 20.0 V G96 – Mt. Lemmon Survey MPS 747436
2016 11 26.45419 03 42 57.100 +25 35 02.39 19.8 w F51 – Pan-STARRS 1, Haleakala MPS 749461
2016 11 26.49215 03 42 54.689 +25 34 59.18 19.8 w F51 – Pan-STARRS 1, Haleakala MPS 749461
2016 11 28.48937 03 40 53.881 +25 32 13.70 19.8 w F51 – Pan-STARRS 1, Haleakala MPS 749461
2016 11 28.50119 03 40 53.152 +25 32 12.51 19.8 w F51 – Pan-STARRS 1, Haleakala MPS 749461
2016 11 28.51311 03 40 52.408 +25 32 11.32 19.8 w F51 – Pan-STARRS 1, Haleakala MPS 749461
2016 11 28.52496 03 40 51.676 +25 32 10.18 19.7 w F51 – Pan-STARRS 1, Haleakala MPS 749461
2016 12 04.14770 03 35 28.32 +25 22 59.4 19.8 r G45 – Space Surveillance Telescope, Atom Site MPS 751926
2016 12 04.15307 03 35 28.03 +25 22 58.3 19.9 r G45 – Space Surveillance Telescope, Atom Site MPS 751926
2016 12 04.15847 03 35 27.74 +25 22 58.1 19.6 r G45 – Space Surveillance Telescope, Atom Site MPS 751926
2016 12 04.17436 03 35 26.81 +25 22 56.6 20.3 r G45 – Space Surveillance Telescope, Atom Site MPS 751926
2016 12 04.98493 03 34 42.50 +25 21 29.6 20.0   J43 – Oukaimeden Observatory, Marrakech MPS 751926
2016 12 04.99331 03 34 42.04 +25 21 28.8 19.7   J43 – Oukaimeden Observatory, Marrakech MPS 751926
2016 12 05.00190 03 34 41.54 +25 21 27.7 19.6   J43 – Oukaimeden Observatory, Marrakech MPS 751926
2016 12 05.01031 03 34 41.08 +25 21 27.5 19.6   J43 – Oukaimeden Observatory, Marrakech MPS 751926
2016 12 05.94974 03 33 51.17 +25 19 44.7 20.1   J43 – Oukaimeden Observatory, Marrakech MPS 751926
2016 12 05.95823 03 33 50.73 +25 19 43.3 20.9   J43 – Oukaimeden Observatory, Marrakech MPS 751926
2016 12 05.96668 03 33 50.26 +25 19 42.7 19.9   J43 – Oukaimeden Observatory, Marrakech MPS 751926
2016 12 05.97510 03 33 49.82 +25 19 42.6 19.4   J43 – Oukaimeden Observatory, Marrakech MPS 751926
2016 12 06.12173 03 33 42.36 +25 19 24.8 20.7 r G45 – Space Surveillance Telescope, Atom Site MPS 751926
2016 12 06.12220 03 33 42.38 +25 19 24.3 20.9 r G45 – Space Surveillance Telescope, Atom Site MPS 751926
2016 12 06.12666 03 33 42.08 +25 19 24.0 20.6 r G45 – Space Surveillance Telescope, Atom Site MPS 751926
2016 12 06.12706 03 33 42.07 +25 19 24.3 20.4 r G45 – Space Surveillance Telescope, Atom Site MPS 751926
2016 12 06.13151 03 33 41.81 +25 19 23.6 20.2 r G45 – Space Surveillance Telescope, Atom Site MPS 751926
2016 12 06.13222 03 33 41.78 +25 19 23.3 20.7 r G45 – Space Surveillance Telescope, Atom Site MPS 751926
2016 12 06.13661 03 33 41.58 +25 19 22.9 20.2 r G45 – Space Surveillance Telescope, Atom Site MPS 751926
2016 12 06.13711 03 33 41.53 +25 19 22.7 19.9 r G45 – Space Surveillance Telescope, Atom Site MPS 751926
2016 12 06.14201 03 33 41.26 +25 19 22.3 19.9 r G45 – Space Surveillance Telescope, Atom Site MPS 751926
2016 12 06.94873 03 32 59.17 +25 17 53.5 20.4   J43 – Oukaimeden Observatory, Marrakech MPS 751926
2016 12 06.95711 03 32 58.71 +25 17 52.6 19.8   J43 – Oukaimeden Observatory, Marrakech MPS 751926
2016 12 06.96554 03 32 58.26 +25 17 51.6 20.1   J43 – Oukaimeden Observatory, Marrakech MPS 751926
2016 12 06.97392 03 32 57.80 +25 17 50.7 20.4   J43 – Oukaimeden Observatory, Marrakech MPS 751926
2017 01 17.85348 03 23 58.73 +24 35 24.1 20.3   J43 – Oukaimeden Observatory, Marrakech MPS 759847
